Location: Vigo di Fassa
(46.4167°N, 11.6667°E)
Time: 15:56:40
(UTC+00:00)

ATLAS CENTAUR R/B - Pass Details

Date: 03 March 2021
Orbit: 475 x 670 km, 64.7° (Epoch: 30 March)

Event Time Altitude Azimuth Distance (km) Brightness Sun altitude
Rises 18:18:38 0° 208° (SSW) 2,522 5.0 -13.9°
Reaches altitude 10° 18:20:45 10° 206° (SSW) 1,640 4.0 -14.3°
Maximum altitude 18:24:21 66° 124° (SE) 521 0.9 -14.9°
Enters shadow 18:27:02 17° 44° (NE) 1,271 2.8 -15.4°
